Location: La Fredeussais
(48.1780°N, 1.3980°W)
Time: 09:38:55
(UTC+00:00)

USA 306 - Pass Details

Date: 09 May 2021
Orbit: 565 x 575 km, 54.0° (Epoch: 11 May)

Event Time Altitude Azimuth Distance (km) Brightness Sun altitude
Rises 22:16:59 0° 298° (WNW) 2,774 7.3 -20.2°
Reaches altitude 10° 22:19:15 10° 297° (WNW) 1,876 6.3 -20.3°
Maximum altitude 22:23:30 72° 214° (SW) 603 2.8 -20.6°
Enters shadow 22:24:03 62° 161° (SSE) 645 2.8 -20.7°
